Location: Tafessasset
(32.5899°N, 5.4824°W)
Time: 13:38:08
(UTC+00:00)

STARLINK-1046 - Pass Details

Date: 18 February 2020
Orbit: 549 x 550 km, 53.0° (Epoch: 30 March)

Event Time Altitude Azimuth Distance (km) Brightness Sun altitude
Exits shadow 05:22:50 51° 340° (NNW) 697 3.9 -21.6°
Maximum altitude 05:23:45 72° 45° (NE) 580 3.7 -21.4°
Drops below altitude 10° 05:27:52 10° 130° (SE) 1,815 7.0 -20.6°
Sets 05:30:06 0° 133° (SE) 2,706 7.9 -20.1°
